Location: Moscow
(38.3171°N, 79.0889°W)
Time: 01:11:53
(UTC+00:00)

Cosmos 2233 Rocket - Pass Details

Date: 07 November 2025
Orbit: 952 x 989 km, 82.9° (Epoch: 08 December)

Event Time Altitude Azimuth Distance (km) Brightness Sun altitude
Rises 23:25:36 0° 184° (S) 3,654 7.2 -15.1°
Reaches altitude 10° 23:28:05 10° 184° (S) 2,716 6.5 -15.6°
Maximum altitude 23:34:19 88° 99° (E) 988 4.0 -16.8°
Drops below altitude 10° 23:40:39 10° 7° (N) 2,753 6.2 -18.0°
Sets 23:43:11 0° 8° (N) 3,707 6.9 -18.5°
